Regional Weather Roundup
Issued by NWS Wakefield, VA

Home | Current Version | Previous Version | Text Only | Print | Product List | Glossary Off
Versions: 1 2 3 4 5 6 7 8 9 10 11 12 13 14 15 16 17 18 19 20 21 22 23 24 25 26 27 28 29 30 31 32 33 34 35 36 37 38 39 40 41 42 43 44 45 46 47 48 49

000
ASUS41 KAKQ 301210
RWRAKQ

REGIONAL WEATHER ROUNDUP
NATIONAL WEATHER SERVICE WAKEFIELD VA
800 AM EDT TUE SEP 30 2014

Note: "fair" indicates few or no clouds below 12,000 feet with no
significant weather and/or obstructions to visibility. * = Denotes
station may not report precipitation (e.g., rain,snow,etc.),
thunder or fog.

VAZ042-051-052>054-056-301300-
NORTHERN VIRGINIA

CITY           SKY/WX    TMP DP  RH WIND       PRES   REMARKS
WASH NATIONAL  CLOUDY    68  62  81 SE6       29.94R
DULLES         FOG       62  62 100 CALM      29.94R VSB 1/4
FORT BELVOIR   CLOUDY    64  63  94 CALM      29.94R FOG
QUANTICO       CLOUDY    64  62  93 NW5       29.95R
FREDERICKSBRG* CLOUDY    65  65 100 CALM      29.93R
STAFFORD*      CLOUDY    64  64 100 CALM      29.97S FOG
WARRENTON      CLOUDY    64  64 100 CALM      29.93R
CULPEPER*      CLOUDY    64  63  94 CALM      29.94R
MANASSAS*      NOT AVBL
LEESBURG*      CLOUDY    63  63 100 CALM      29.95R
WINCHESTER     CLEAR     55  54  94 CALM      29.93R FOG
FRONT ROYAL*   SUNNY     55  55 100 S3        29.93R
LURAY*         PTSUNNY   54  54 100 CALM      29.95R FOG
$$

VAZ048-049-060>072-079>083-301300-
CENTRAL AND SOUTH CENTRAL VIRGINIA...AND NORTH CENTRAL NORTH CAROLINA

CITY           SKY/WX    TMP DP  RH WIND       PRES   REMARKS
RICHMOND       CLOUDY    64  63  96 S5        29.93R FOG
CHESTERFIELD*  CLOUDY    64  54  68 NW6       29.95R
PETERSBURG*    CLOUDY    64  62  96 CALM      29.94R FOG
HANOVER        CLOUDY    64  63  96 NW3       29.95R FOG
TAPPAHANNOCK*  CLOUDY    63  61  94 CALM      29.94S FOG
CHARLOTTSVILLE FOG       62  61  96 CALM      29.93R VSB 1/2
ORANGE*        CLOUDY    63  61  94 CALM      29.95R
LOUISA*        CLOUDY    63  63 100 CALM      29.93R FOG
FARMVILLE*     CLOUDY    64  63  94 CALM      29.92R
CREWE*         CLOUDY    64  61  90 CALM      29.93S
FORT PICKETT*  CLOUDY    64  62  94 CALM      29.94R
LUNENBURG*     CLOUDY    64  63  97 CALM      29.94R
SOUTH HILL*    CLOUDY    64  64 100 CALM      29.99R FOG
LAWRENCEVILLE* CLOUDY    63  63 100 CALM      29.93S
ROANOKE RAPIDS FOG       59  59 100 CALM      29.94R VSB<1/4
RALEIGH        FOG       63  61  93 CALM      29.95R VSB 1
$$

VAZ088>098-301300-
SOUTHEAST VIRGINIA

CITY           SKY/WX    TMP DP  RH WIND       PRES   REMARKS
NORFOLK        MOSUNNY   66  63  90 CALM      29.92S
VIRGINIA BEACH MOSUNNY   66  65  96 CALM      29.91S
NORFOLK NAVAL  MOSUNNY   67  64  90 CALM      29.93S
WEST POINT*    CLOUDY    66  64  93 CALM      29.94S
NEWPORT NEWS   MOSUNNY   65  61  87 CALM      29.93R
LANGLEY AFB    SUNNY     63 N/A N/A NW2       29.93S
FORT EUSTIS    FOG       63  63 100 SE1       29.91R VSB 1/4
WILLIAMSBURG*  SUNNY     64  63  94 CALM      29.94R
HR EXEC AP*    PTSUNNY   61  59  94 CALM      29.94S
FRANKLIN*      CLOUDY    61 N/A N/A CALM      29.93S VSB<1/4
WAKEFIELD      FOG       63  61  93 CALM      29.93S VSB 1/4
$$

VAZ020-022-025-037-045-301300-
WEST CENTRAL AND SOUTHWEST VIRGINIA

CITY           SKY/WX    TMP DP  RH WIND       PRES   REMARKS
STAUNTON*      FOG       51  49  95 CALM      29.97R VSB 1/4
HOT SPRINGS VA CLEAR     55  51  85 W7        30.05R
LYNCHBURG      FOG       62  62 100 CALM      29.95R VSB 1
DANVILLE       CLOUDY    63  61  93 W3        29.94R
SOUTH BOSTON*  NOT AVBL
MARTINSVILLE   FOG       61  61 100 CALM      29.97S VSB 1/4
ROANOKE        FOG       58  57  97 CALM      29.97S VSB 1/4
BLACKSBURG     FOG       55  55 100 CALM      30.02R VSB<1/4
DUBLIN*        FOG       53  53 100 CALM      30.01S VSB<1/4
MARION*        FOG       55  54  96 W9        30.04S VSB 1/4
HILLSVILLE*    FOG       50  50 100 SW3       30.01S VSB<1/4
RICHLANDS*     SUNNY     60  58  92 CALM      30.02R
WISE*          FOG       57  57 100 SW3       30.04R VSB 1/2
ABINGDON*      MOCLDY    54  54 100 CALM      30.01S FOG
$$

MDZ021>025-VAZ099-100-301300-
SOUTHERN MARYLAND AND THE DELMARVA PENINSULA

CITY           SKY/WX    TMP DP  RH WIND       PRES   REMARKS
PATUXENT RIVER FOG       63  62  97 E5        29.93S VSB 1
BAY BRIDGE APT   N/A     63  63 100 CALM      29.94R FOG
LEONARDTOWN    CLOUDY    63  61  94 CALM      29.95R
DOVER          CLOUDY    62  62 100 SE3       29.92S
GEORGETOWN     PTSUNNY   62  60  93 VRB6      29.95R
EASTON         SUNNY     63  63 100 CALM      29.97S
CAMBRIDGE        N/A     59  55  88 CALM      29.93S VSB 1/2
SALISBURY      CLOUDY    65  61  87 CALM      29.94R
OCEAN CITY     CLOUDY    66  62  87 MISG      29.93S
WALLOPS ISLAND CLOUDY    65  62  90 N3        29.93S
ACCOMACK*      CLOUDY    63  61  94 CALM      29.92S FOG
$$

NCZ012>017-030>032-301300-
EASTERN NORTH CAROLINA

CITY           SKY/WX    TMP DP  RH WIND       PRES   REMARKS
ELIZABETH CITY SUNNY     65  63  93 N6        29.92R
AHOSKIE*       SUNNY     57  57  98 CALM      29.94R
EDENTON*       SUNNY     62  61  97 N3        29.92S
CURRITUCK*     SUNNY     64  62  94 CALM      29.92S
KILL DEVIL HLS SUNNY     69  58  68 N3        29.89S
MANTEO         SUNNY     68  60  74 NE5       29.90S
CAPE HATTERAS  CLOUDY    64  63  96 NE3       29.89S
TARBORO*       FOG       60  59  97 CALM      29.93S VSB<1/4
GOLDSBORO      SUNNY     63  62  98 CALM      29.91R
WASHINGTON     SUNNY     63  61  96 N5        29.93R
GREENVILLE     MOSUNNY   61  61 100 CALM      29.94S FOG
NEW BERN       SUNNY     65  61  87 N5        29.93R
WILMINGTON     SUNNY     64  62  93 N7        29.90R FOG
$$

VAZ048-301300-
ELSEWHERE

CITY           SKY/WX    TMP DP  RH WIND       PRES   REMARKS
HARRISBURG PA  FOG       61  60  97 E5        29.93R VSB 1/4
BALTIMORE      CLOUDY    64  63  96 SE3       29.94R
ANNAPOLIS      PTSUNNY   66  62  87 W3        29.93S
ANDREWS AFB    FOG       63  63 100 E3        29.94S VSB 3/4
WILMINGTON DE  PTSUNNY   64  61  90 CALM      29.95R
PHILADELPHIA   CLOUDY    65  62  90 SE5       29.96R
WILDWOOD NJ*   CLOUDY    63  59  88 CALM      29.96R
ATLANTIC CITY  LGT RAIN  60  58  92 E3        29.96R
HENDERSON NC   CLOUDY    63  61  96 NW3       29.94S FOG
GREENSBORO     FOG       61  61 100 W3        29.94R VSB 1/8
ROCKY MOUNT    FOG       61  60  97 CALM      29.93R VSB<1/4
FAYETTEVILLE   FOG       60  59  96 CALM      29.92R VSB 1/4
CHARLOTTE      FOG       60  59  96 NW3       29.96R VSB 1/2
$$

VAZ100-301300-
MARINE

STATION/POSITION TIME  TEMP    WIND        PRES    WAVE   SWELL
                       AIR SEA DIR/SP/G            HT/PER HT/PER
                 (UTC) (F)     (DEG/KT/KT) (MB)    (FT/S) (FT/S)
44066 TX TWR #4  1200   67 69   60/ 10/ 12 1013.7S   2/ 7   2/ 7
CAPE MAY NJ      1200   64 73   70/  2/  3 1013.5R
LEWES DE         1200   64 70  280/  1/  1 1013.6R
15NM E FENWICK I 1200   69 70              1013.3R   2/ 8
OCEAN-CITY-INLET 1200   67 71   20/  2/  3 1013.2S
WACHAPREAGUE VA  1200   64 72   CALM  /  2 1013.2S
THOMAS POINT MD  1200   66 72  220/  4/  4 1014.7R
GOOSES REEF MD   1200   65     180/  2/  2 1014.0S
COVE POINT MD    1200   64     210/  3/  3 1013.5S
SOLOMONS ISLAND  1200      72                N/A
BISHOPS HEAD MD  1200   68 70  140/  1/  3 1013.1F
PINEY POINT MD   1200          130/  1/  2   N/A
POTOMAC MD       1200   66     290/  4/  6 1013.0S
CAMBRIDGE MD     1200   63 71  120/  4/  4 1013.4S
LEWISETTA VA     1200   63 71  220/  3/  4 1013.3S
RAPPAHANNOCK LGT 1200             CALM     1013.7F
STINGRAY PT      1200   67     290/  6/  8   N/A
YORK RVR RNG VA  1200   67     340/  1/  1 1012.9S
YORKTOWN VA      1200   65 72  170/  2/  2 1013.0S
JAMESTOWN VA     1200   63     310/  2/  4   N/A
DOMINION TERM VA 1200   66     350/  3/  4 1013.2F
KIPTOPEKE VA     1200      76   30/  1/  2   N/A
CHES BAY BRIDGE  1200   69 72   10/  3/  4 1012.6S
CHESAPEAKE LGHT  1100   68      40/  8/  9 1013.7S
WILLOUBY STN VA  1200   67      10/  3/  3 1011.9S
S CRANEY ISL VA  1200           40/  2/  3 1012.9S
CAPE HENRY BUOY  1200      73                N/A     2/14   2/14
1ST LANDING BUOY 1200   69      40/  4/  8 1012.8F
CAPE CHARLES BUO 1200      72                N/A     2/ 8   2/ 8
OFFSHORE WE BUOY 1100      73                N/A     2/14   2/14
64NM E OF VA BCH 1200   70 71   40/  8/ 10 1012.1S   2/ 8   2/ 8
DUCK PIER NC     1200   71 72   30/  9/ 11 1011.9S
44100 DUCK FRF   1200      72                N/A     2/ 8
44056 DUCK FRF   1200                        N/A     2/ 8
OREGON INLET NC  1200   69 73   30/  6/  8 1012.2S
HATTERAS NC      1200   66 74   70/  4/  5 1012.5S
DIAMOND SHLS NC  1200   71     360/ 16/ 17 1011.7R   4/ 5   2/ 8
CAPE LOOKOUT NC  1100   69      20/  9/ 10 1011.5R
$$



USA.gov is the U.S. government's official web portal to all federal, state and local government web resources and services.